This is the latest recevied weather packets stored in our database for station/object AC5CM. If no packets are shown the sender has not sent any weather packets the latest 10 day(s).
| Time | Temp. | Humidity | Pressure | Rain* | Wind** | Luminosity | Snow |
|---|---|---|---|---|---|---|---|
| 1777897522 | 14.44° C | 93% | 1016.9 hPa | 0 mm | - | - | - |
| 1777897217 | 13.89° C | 94% | 1016.6 hPa | 0 mm | - | - | - |
| 1777896914 | 13.33° C | 94% | 1016.9 hPa | 0 mm | - | - | - |
| 1777896611 | 13.33° C | 94% | 1016.5 hPa | 0 mm | - | - | - |
| 1777896308 | 13.33° C | 94% | 1016.6 hPa | 0 mm | - | - | - |
| 1777896006 | 12.78° C | 95% | 1016.6 hPa | 0 mm | - | - | - |
| 1777895704 | 12.78° C | 95% | 1016.6 hPa | 0 mm | - | - | - |
| 1777895400 | 12.78° C | 95% | 1016.7 hPa | 0 mm | - | - | - |
| 1777895098 | 12.78° C | 94% | 1016.6 hPa | 0 mm | - | - | - |
| 1777894795 | 12.78° C | 94% | 1016.8 hPa | 0 mm | - | - | - |
| 1777894492 | 12.22° C | 94% | 1016.7 hPa | 0 mm | - | - | - |
| 1777894189 | 12.22° C | 93% | 1016.8 hPa | 0 mm | - | - | - |
| 1777893886 | 12.78° C | 93% | 1016.6 hPa | 0 mm | - | - | - |
| 1777893582 | 12.78° C | 93% | 1016.7 hPa | 0 mm | - | - | - |
| 1777893279 | 12.78° C | 93% | 1016.5 hPa | 0 mm | - | - | - |
| 1777892976 | 12.78° C | 93% | 1016.7 hPa | 0 mm | - | - | - |
| 1777892672 | 12.78° C | 93% | 1016.5 hPa | 0 mm | - | - | - |
| 1777892368 | 12.78° C | 92% | 1016.5 hPa | 0 mm | - | - | - |
| 1777892064 | 12.78° C | 92% | 1016.3 hPa | 0 mm | - | - | - |
| 1777891762 | 12.78° C | 92% | 1016.7 hPa | 0 mm | - | - | - |
| 1777891458 | 12.78° C | 92% | 1016.5 hPa | 0 mm | - | - | - |
| 1777891154 | 13.33° C | 91% | 1016.2 hPa | 0 mm | - | - | - |
| 1777890849 | 13.33° C | 92% | 1016.4 hPa | 0 mm | - | - | - |
| 1777890545 | 13.33° C | 92% | 1016.3 hPa | 0 mm | - | - | - |
| 1777890240 | 13.33° C | 92% | 1016.5 hPa | 0 mm | - | - | - |
* Rain latest hour (hover to see other rain measurements)
** Current wind speed in m/s (hover to see current wind gust speed)